FW8542 Weather Reports


time (UTC)temp
C
wind
direction
speed
KPH
gust
KPH
rain 1hr
cm
rain 24hr
cm
rain mn
cm
humidity
%
barometer
mb
20260502194505 15 171 0.0 1.6 0.00 0.00 0.00 67 1006.6
20260502193605 14 0 0.0 0.0 0.00 0.00 0.00 67 1006.5
20260502192706 15 0 0.0 0.0 0.00 0.00 0.00 66 1006.4
20260502191805 15 0 0.0 0.0 0.00 0.00 0.00 67 1006.4
20260502190905 15 0 0.0 0.0 0.00 0.00 0.00 66 1006.3
20260502190005 15 0 0.0 0.0 0.00 0.00 0.00 66 1006.4
20260502185405 15 0 0.0 0.0 0.00 0.00 0.00 66 1006.4
20260502184505 15 0 0.0 0.0 0.00 0.00 0.00 65 1006.5
20260502183605 15 0 0.0 0.0 0.00 0.00 0.00 65 1006.5
20260502182705 15 0 0.0 0.0 0.00 0.00 0.00 64 1006.3
20260502181805 16 0 0.0 0.0 0.00 0.00 0.00 63 1006.4
20260502180905 16 0 0.0 0.0 0.00 0.00 0.00 62 1006.4
20260502163605 17 323 0.0 4.8 0.00 0.00 0.00 57 1006.8
20260502162726 17 307 1.6 4.8 0.00 0.00 0.00 58 1006.9
20260502161805 17 319 1.6 6.4 0.00 0.00 0.00 58 1006.9
20260502160905 17 322 1.6 4.8 0.00 0.00 0.00 59 1007.0
20260502151826 17 276 3.2 11.3 0.00 0.00 0.00 56 1007.6
20260502150926 18 313 1.6 8.0 0.00 0.00 0.00 58 1007.6
20260502123604 18 324 3.2 12.9 0.00 0.00 0.00 60 1008.5
20260502122704 18 318 3.2 9.7 0.00 0.00 0.00 57 1008.6
20260502121804 18 308 1.6 11.3 0.00 0.00 0.00 57 1008.5
20260502120904 17 330 3.2 12.9 0.00 0.00 0.00 62 1008.4
20260502115404 17 317 3.2 8.0 0.00 0.00 0.00 61 1008.5
20260502114504 17 301 3.2 12.9 0.00 0.00 0.00 59 1008.5
20260502113604 17 301 1.6 6.4 0.00 0.00 0.00 63 1008.5
20260502112705 16 301 1.6 6.4 0.00 0.00 0.00 63 1008.7
20260502111804 16 303 1.6 9.7 0.00 0.00 0.00 64 1008.7
20260502110904 16 293 3.2 9.7 0.00 0.00 0.00 64 1008.8
20260502110004 16 292 3.2 11.3 0.00 0.00 0.00 61 1008.9
20260502105404 17 283 3.2 11.3 0.00 0.00 0.00 62 1008.8
20260502104504 17 262 3.2 14.5 0.00 0.00 0.00 61 1008.8
20260502103604 16 271 3.2 11.3 0.00 0.00 0.00 65 1008.7
20260502102726 15 313 3.2 11.3 0.00 0.00 0.00 65 1008.7
20260502101804 17 307 3.2 9.7 0.00 0.00 0.00 61 1008.8
20260502100904 17 294 3.2 8.0 0.00 0.00 0.00 62 1008.8
20260502090904 15 298 3.2 14.5 0.00 0.00 0.00 67 1009.2
20260502070903 13 303 1.6 8.0 0.00 0.00 0.00 75 1009.2
20260502070005 13 233 1.6 4.8 0.00 0.00 0.00 77 1009.2
20260502065403 12 221 1.6 4.8 0.00 0.00 0.00 78 1009.2
20260502064504 12 206 1.6 4.8 0.00 0.00 0.00 80 1009.4
20260502063603 11 250 0.0 4.8 0.00 0.00 0.00 80 1009.3
20260502062704 11 202 1.6 4.8 0.00 0.00 0.00 82 1009.3
20260502061803 10 179 0.0 4.8 0.00 0.00 0.00 83 1009.3
20260502060903 10 0 0.0 0.0 0.00 0.00 0.00 83 1009.3
20260502060003 10 0 0.0 0.0 0.00 0.00 0.00 83 1009.3
20260502055403 9 0 0.0 0.0 0.00 0.00 0.00 83 1009.3
20260502054524 9 0 0.0 0.0 0.00 0.00 0.00 82 1009.4
20260502053603 10 0 0.0 0.0 0.00 0.00 0.00 82 1009.4
20260502052725 10 0 0.0 0.0 0.00 0.00 0.00 83 1009.5
20260502051803 10 0 0.0 0.0 0.00 0.00 0.00 83 1009.5
20260502050924 9 0 0.0 0.0 0.00 0.00 0.00 83 1009.5
20260502050024 9 0 0.0 0.0 0.00 0.00 0.00 83 1009.4
20260502045403 9 0 0.0 0.0 0.00 0.00 0.00 83 1009.5
20260502044504 9 0 0.0 0.0 0.00 0.00 0.00 84 1009.4
20260502043603 9 0 0.0 0.0 0.00 0.00 0.00 83 1009.4
20260502042705 9 0 0.0 0.0 0.00 0.00 0.00 83 1009.4
20260502041805 9 0 0.0 0.0 0.00 0.00 0.00 82 1009.4
20260502040926 10 0 0.0 0.0 0.00 0.00 0.00 82 1009.5
20260502040027 10 0 0.0 0.0 0.00 0.00 0.00 82 1009.5
20260502035405 10 0 0.0 0.0 0.00 0.00 0.00 82 1009.4
20260502034505 10 0 0.0 0.0 0.00 0.00 0.00 81 1009.5
20260502033626 10 206 0.0 3.2 0.00 0.00 0.00 81 1009.6
20260502032705 10 0 0.0 0.0 0.00 0.00 0.00 80 1009.6
20260502031805 10 0 0.0 0.0 0.00 0.00 0.00 80 1009.5
20260502030905 10 0 0.0 0.0 0.00 0.00 0.00 80 1009.5
20260502030005 10 325 0.0 3.2 0.00 0.00 0.00 81 1009.6
20260502025405 10 307 0.0 3.2 0.00 0.00 0.00 81 1009.7
20260502024505 10 319 0.0 4.8 0.00 0.00 0.00 81 1009.6
20260502023605 10 311 0.0 4.8 0.00 0.00 0.00 81 1009.7
20260502022705 10 328 0.0 3.2 0.00 0.00 0.00 80 1009.8
20260502021805 10 326 0.0 4.8 0.00 0.00 0.00 80 1009.9
20260502020927 10 311 0.0 3.2 0.00 0.00 0.00 80 1010.0
20260502020005 10 320 0.0 3.2 0.00 0.00 0.00 80 1010.1
20260502015405 11 322 0.0 3.2 0.00 0.00 0.00 80 1010.1
20260502014526 11 0 0.0 0.0 0.00 0.00 0.00 79 1010.1
20260502013605 11 0 0.0 0.0 0.00 0.00 0.00 78 1010.2
20260502012705 11 331 0.0 6.4 0.00 0.00 0.00 78 1010.3
20260502011826 11 309 0.0 4.8 0.00 0.00 0.00 78 1010.3
20260502010905 11 318 1.6 6.4 0.00 0.00 0.00 79 1010.4
20260502010026 11 324 1.6 8.0 0.00 0.00 0.00 79 1010.5
20260502005405 11 321 0.0 8.0 0.00 0.00 0.00 79 1010.5
20260502004527 11 335 0.0 1.6 0.00 0.00 0.00 79 1010.7
20260502003626 11 0 0.0 0.0 0.00 0.00 0.00 80 1010.6
20260502002726 12 0 0.0 0.0 0.00 0.00 0.00 81 1010.6
20260502001805 12 0 0.0 0.0 0.00 0.00 0.00 81 1010.6
20260502000905 12 0 0.0 0.0 0.00 0.00 0.00 81 1010.6
20260502000005 12 300 0.0 1.6 0.00 0.00 0.00 81 1010.7
20260501235406 12 300 0.0 1.6 0.00 0.00 0.00 81 1010.7
20260501234505 12 328 0.0 1.6 0.00 0.00 0.00 81 1010.8
20260501233605 12 321 0.0 1.6 0.00 0.00 0.00 82 1010.7
20260501232726 12 318 0.0 1.6 0.00 0.00 0.00 81 1010.8
20260501231804 12 316 0.0 3.2 0.00 0.00 0.00 80 1010.7
20260501230904 12 316 0.0 3.2 0.00 0.00 0.00 80 1010.8
20260501230005 12 327 0.0 8.0 0.00 0.00 0.00 79 1010.9
20260501225404 13 328 1.6 8.0 0.00 0.00 0.00 79 1011.0
20260501224505 13 322 0.0 8.0 0.00 0.00 0.00 80 1010.7
20260501223605 13 318 1.6 4.8 0.00 0.00 0.00 80 1010.7
20260501222705 13 324 0.0 4.8 0.00 0.00 0.00 80 1010.8
20260501221804 13 315 0.0 4.8 0.00 0.00 0.00 79 1010.8
20260501220905 13 329 1.6 8.0 0.00 0.00 0.00 79 1010.8
20260501220025 13 320 1.6 8.0 0.00 0.00 0.00 78 1010.7
20260501215404 13 319 1.6 6.4 0.00 0.00 0.00 78 1010.8
20260501214504 13 315 1.6 6.4 0.00 0.00 0.00 77 1010.9
20260501213604 13 317 0.0 4.8 0.00 0.00 0.00 76 1010.8
20260501212704 13 319 1.6 8.0 0.00 0.00 0.00 75 1010.8
20260501211804 13 323 1.6 8.0 0.00 0.00 0.00 74 1011.0
20260501210904 13 317 0.0 6.4 0.00 0.00 0.00 72 1011.0
20260501210004 13 317 0.0 3.2 0.00 0.00 0.00 72 1011.1
20260501205426 14 313 0.0 3.2 0.00 0.00 0.00 71 1011.0
20260501204525 14 326 1.6 4.8 0.00 0.00 0.00 71 1011.0
20260501203604 14 324 0.0 4.8 0.00 0.00 0.00 70 1011.1
20260501202725 14 339 0.0 3.2 0.00 0.00 0.00 69 1011.1
20260501201804 14 319 0.0 4.8 0.00 0.00 0.00 69 1011.1
20260501200925 14 324 0.0 4.8 0.00 0.00 0.00 68 1011.1
20260501200004 15 298 0.0 4.8 0.00 0.00 0.00 67 1011.0
20260501195425 15 316 0.0 3.2 0.00 0.00 0.00 67 1010.9